{"data":{"norad_id":54873,"epoch":"2026-05-25T03:44:00.125664Z","epoch_age_seconds":68389,"freshness":"FRESH","line1":"1 54873U 22177BF  26145.15555701 -.00000056  00000+0  75024-5 0  9997","line2":"2 54873  43.0024  49.8514 0001059 252.1376 107.9361 15.27575517188788","mean_motion":15.27575517,"eccentricity":0.0001059,"inclination_deg":43.0024,"raan_deg":49.8514,"arg_perigee_deg":252.1376,"mean_anomaly_deg":107.9361,"bstar":7.5024e-6,"rev_number":18878,"period_min":94.267025359768,"perigee_km":482.33591875809,"apogee_km":483.78912081638,"semimajor_km":6861.1995197872,"source":"CELESTRAK","updated_at":"2026-05-25T13:38:17.730214Z"}}